�N����,����,�~����,�C��,���x,�C��,����,���ϕ���,�ő�u�ԕ���,�ő厞����,���˗�,�I�_���x,�n�����x,�ő啗���N��,DTYPE
"20/05/05","00:10",0.0,20.1,81.9,1003.6,349.2,2.2,5.9,342.7,0.00,17.0,19.3,"00:03:52",1
"20/05/05","00:20",0.0,20.0,82.1,1003.6,337.2,1.7,2.9,351.1,0.00,16.9,19.2,"00:10:32",1
"20/05/05","00:30",0.0,19.8,82.3,1003.8,292.0,1.0,2.1,321.2,0.00,16.7,19.0,"00:22:08",1
"20/05/05","00:40",0.0,19.6,82.5,1003.8,333.1,0.5,1.3,338.2,0.00,16.6,19.0,"00:38:00",1
"20/05/05","00:50",0.0,19.5,83.0,1004.3,332.1,1.2,2.0,332.9,0.00,16.6,19.1,"00:47:04",1
"20/05/05","01:00",0.0,19.3,83.4,1004.3,329.9,1.1,2.0,335.9,0.00,16.5,19.0,"00:50:08",1
"20/05/05","01:10",0.0,19.1,84.1,1004.8,283.7,1.0,1.6,308.3,0.00,16.4,18.9,"01:01:12",1
"20/05/05","01:20",0.0,19.1,84.7,1004.1,309.9,1.2,2.4,335.2,0.00,16.5,19.0,"01:14:08",1
"20/05/05","01:30",0.0,18.9,85.2,1004.3,320.5,0.8,1.9,348.1,0.00,16.4,19.0,"01:21:20",1
"20/05/05","01:40",0.0,18.8,85.7,1004.3,284.6,0.6,1.3,310.7,0.00,16.4,18.7,"01:30:08",1
"20/05/05","01:50",0.0,18.9,86.1,1004.3,349.4,0.3,1.4,322.8,0.00,16.6,18.9,"01:41:44",1
"20/05/05","02:00",0.0,18.9,86.6,1003.8,333.3,0.7,1.9,341.8,0.00,16.7,18.7,"01:57:44",1
"20/05/05","02:10",0.0,19.0,86.9,1004.1,339.7,1.1,1.8,330.3,0.00,16.8,18.7,"02:05:44",1
"20/05/05","02:20",0.0,18.9,87.2,1004.1,323.8,0.3,1.2,263.8,0.00,16.8,18.7,"02:11:20",1
"20/05/05","02:30",0.0,18.9,87.4,1003.8,49.0,0.5,1.3,110.2,0.00,16.8,18.6,"02:23:12",1
"20/05/05","02:40",0.0,18.9,87.7,1004.3,301.8,0.7,1.9,355.6,0.00,16.9,18.5,"02:37:12",1
"20/05/05","02:50",0.0,18.9,87.8,1004.1,93.1,0.3,0.8,120.6,0.00,16.9,18.5,"02:44:08",1
"20/05/05","03:00",0.0,18.7,87.9,1004.3,304.4,0.8,1.3,325.8,0.00,16.7,18.5,"02:54:08",1
"20/05/05","03:10",0.0,18.6,88.2,1004.3,313.5,1.1,1.8,312.7,0.00,16.7,18.6,"03:04:08",1
"20/05/05","03:20",0.0,18.6,88.4,1004.3,320.4,0.8,2.1,354.9,0.00,16.7,18.3,"03:15:52",1
"20/05/05","03:30",0.0,18.7,88.5,1004.5,283.8,1.2,1.6,324.4,0.00,16.8,18.2,"03:24:24",1
"20/05/05","03:40",0.0,18.7,88.7,1004.3,309.2,1.0,1.4,319.0,0.00,16.8,18.2,"03:36:00",1
"20/05/05","03:50",0.0,18.7,88.7,1004.5,333.0,1.3,2.6,339.9,0.00,16.8,18.5,"03:45:20",1
"20/05/05","04:00",0.0,18.8,88.4,1004.5,335.3,1.7,3.2,329.9,0.00,16.9,18.2,"03:54:40",1
"20/05/05","04:10",0.0,18.9,87.6,1004.5,341.9,2.0,3.7,343.6,0.00,16.8,18.3,"04:06:40",1
"20/05/05","04:20",0.0,18.9,86.3,1005.2,355.4,2.1,4.2,41.3,0.00,16.6,18.3,"04:19:52",1
"20/05/05","04:30",0.0,18.9,85.0,1005.2,2.0,2.3,5.0,17.9,0.00,16.4,18.4,"04:26:48",1
"20/05/05","04:40",0.0,18.7,83.6,1005.5,6.7,2.3,4.5,2.5,0.00,15.9,18.4,"04:32:48",1
"20/05/05","04:50",0.0,18.4,82.5,1005.7,0.3,2.1,4.7,1.6,0.00,15.4,18.4,"04:44:56",1
"20/05/05","05:00",0.0,18.2,81.7,1005.7,356.4,2.1,5.9,345.9,0.00,15.1,18.3,"04:59:04",1
"20/05/05","05:10",0.0,18.0,81.2,1005.7,347.6,2.7,4.8,350.0,0.00,14.8,18.5,"05:02:56",1
"20/05/05","05:20",0.0,17.9,81.0,1006.2,334.8,2.6,6.0,344.0,0.00,14.6,18.2,"05:14:40",1
"20/05/05","05:30",0.0,17.6,80.9,1006.2,347.8,2.5,5.5,332.9,0.00,14.3,18.3,"05:29:36",1
"20/05/05","05:40",0.0,17.5,80.8,1006.7,354.2,3.1,5.2,323.2,0.00,14.2,18.0,"05:32:24",1
"20/05/05","05:50",0.0,17.4,80.7,1006.2,357.8,2.2,5.1,12.9,0.00,14.1,17.8,"05:40:48",1
"20/05/05","06:00",0.0,17.4,80.7,1006.4,352.7,1.7,4.5,357.9,0.02,14.1,17.9,"05:51:04",1
"20/05/05","06:10",0.0,17.6,80.4,1006.7,355.1,1.3,3.4,333.3,0.04,14.2,18.0,"06:03:04",1
"20/05/05","06:20",0.0,17.5,79.8,1006.9,354.7,1.8,3.7,343.3,0.04,14.0,17.9,"06:16:16",1
"20/05/05","06:30",0.0,17.5,79.6,1006.7,349.2,2.2,4.4,350.0,0.06,14.0,17.8,"06:27:28",1
"20/05/05","06:40",0.0,17.9,78.9,1007.1,357.8,2.1,3.7,19.7,0.09,14.2,18.0,"06:32:32",1
"20/05/05","06:50",0.0,18.0,77.7,1007.4,352.0,1.8,4.1,344.1,0.09,14.1,18.0,"06:41:20",1
"20/05/05","07:00",0.0,18.0,76.8,1007.6,347.3,2.7,5.1,354.7,0.09,13.9,18.0,"06:53:20",1
"20/05/05","07:10",0.0,18.0,76.4,1007.6,354.6,2.6,4.2,8.7,0.12,13.8,17.8,"07:05:44",1
"20/05/05","07:20",0.0,17.8,75.2,1007.6,1.8,2.8,5.7,354.9,0.15,13.4,18.1,"07:14:32",1
"20/05/05","07:30",0.0,17.7,74.8,1007.4,356.3,2.7,5.2,351.2,0.12,13.2,17.9,"07:29:36",1
"20/05/05","07:40",0.0,17.9,74.7,1007.6,354.0,2.6,5.5,337.5,0.16,13.4,18.1,"07:34:48",1
"20/05/05","07:50",0.0,18.3,73.6,1007.6,354.8,2.5,5.8,336.9,0.21,13.5,18.2,"07:44:32",1
"20/05/05","08:00",0.0,18.8,71.9,1007.4,348.3,2.6,5.2,341.3,0.25,13.7,18.4,"07:53:04",1
"20/05/05","08:10",0.0,19.1,69.4,1007.4,325.9,2.2,5.5,328.3,0.27,13.4,18.4,"08:08:52",1
"20/05/05","08:20",0.0,19.5,67.6,1007.1,332.3,2.3,4.7,349.9,0.29,13.4,18.5,"08:16:48",1
"20/05/05","08:30",0.0,20.0,65.6,1007.4,333.6,2.7,4.7,351.7,0.33,13.4,18.6,"08:26:40",1
"20/05/05","08:40",0.0,20.6,63.8,1006.9,342.2,2.2,4.3,352.4,0.35,13.5,18.9,"08:38:56",1
"20/05/05","08:50",0.0,21.1,62.7,1006.7,321.7,1.6,3.1,345.0,0.38,13.8,19.1,"08:41:28",1
"20/05/05","09:00",0.0,21.6,60.9,1006.9,329.1,1.5,3.4,10.8,0.39,13.8,19.2,"08:58:24",1
"20/05/05","09:10",0.0,21.9,57.4,1006.7,348.8,1.8,4.2,341.4,0.40,13.2,19.4,"09:04:32",1
"20/05/05","09:20",0.0,22.0,55.6,1006.9,347.9,2.3,4.8,355.4,0.41,12.8,19.8,"09:19:28",1
"20/05/05","09:30",0.0,22.6,55.0,1006.7,349.5,1.8,4.2,3.9,0.45,13.2,20.0,"09:27:52",1
"20/05/05","09:40",0.0,23.0,53.9,1006.7,341.4,2.2,4.8,349.6,0.47,13.2,20.3,"09:33:28",1
"20/05/05","09:50",0.0,23.6,52.2,1006.4,336.0,2.3,4.3,332.6,0.50,13.3,20.4,"09:45:52",1
"20/05/05","10:00",0.0,23.5,49.0,1006.2,338.5,2.6,6.2,345.4,0.50,12.2,20.7,"09:50:48",1
"20/05/05","10:10",0.0,23.4,47.5,1006.0,335.5,3.0,6.0,334.4,0.51,11.7,21.0,"10:05:52",1
"20/05/05","10:20",0.0,23.6,45.5,1006.0,335.8,2.8,4.7,302.9,0.55,11.2,21.2,"10:12:40",1
"20/05/05","10:30",0.0,24.3,43.4,1006.2,344.3,2.2,4.4,345.5,0.57,11.1,21.4,"10:22:24",1
"20/05/05","10:40",0.0,24.4,40.9,1005.7,346.9,2.6,5.8,329.8,0.57,10.3,21.7,"10:38:56",1
"20/05/05","10:50",0.0,25.3,40.1,1005.0,344.8,1.7,3.4,318.5,0.58,10.8,21.9,"10:43:52",1
"20/05/05","11:00",0.0,25.6,37.0,1005.2,351.2,1.7,4.2,334.7,0.60,9.9,22.2,"10:51:04",1
"20/05/05","11:10",0.0,25.7,35.2,1004.5,352.5,1.8,4.0,340.2,0.60,9.2,22.5,"11:00:08",1
"20/05/05","11:20",0.0,25.8,39.3,1004.3,320.9,1.8,4.4,339.5,0.61,11.0,22.8,"11:12:56",1
"20/05/05","11:30",0.0,26.0,32.0,1004.3,350.2,2.0,5.1,353.8,0.63,8.1,23.0,"11:27:52",1
"20/05/05","11:40",0.0,26.7,31.8,1004.1,347.7,2.0,5.2,338.1,0.62,8.6,23.3,"11:30:02",1
"20/05/05","11:50",0.0,26.7,29.7,1003.8,1.1,1.8,6.2,338.0,0.61,7.6,23.3,"11:40:48",1
"20/05/05","12:00",0.0,26.9,31.8,1004.1,359.8,2.2,4.8,12.0,0.61,8.8,23.6,"11:51:12",1
"20/05/05","12:10",0.0,27.3,33.8,1004.5,317.5,1.6,3.4,343.7,0.62,10.0,23.8,"12:06:24",1
"20/05/05","12:20",0.0,27.2,29.6,1004.5,358.3,2.2,5.0,338.7,0.61,8.0,23.9,"12:12:16",1
"20/05/05","12:30",0.0,27.7,29.2,1004.3,358.7,1.8,4.4,350.2,0.61,8.2,24.2,"12:23:20",1
"20/05/05","12:40",0.0,28.0,32.7,1004.1,334.9,1.7,3.3,355.5,0.62,10.1,24.3,"12:30:16",1
"20/05/05","12:50",0.0,27.9,31.2,1004.1,243.7,1.5,3.5,240.8,0.61,9.4,24.4,"12:42:08",1
"20/05/05","13:00",0.0,28.1,32.4,1003.8,240.4,1.5,3.6,222.4,0.58,10.1,24.6,"12:54:16",1
"20/05/05","13:10",0.0,28.3,29.4,1004.1,320.8,1.6,4.1,355.7,0.56,8.8,24.7,"13:01:36",1
"20/05/05","13:20",0.0,28.4,33.0,1004.1,13.0,1.6,3.9,228.5,0.52,10.6,24.7,"13:10:02",1
"20/05/05","13:30",0.0,28.2,35.3,1003.8,262.6,1.7,3.7,338.4,0.52,11.5,24.7,"13:26:32",1
"20/05/05","13:40",0.0,28.0,34.2,1003.6,234.2,2.0,4.3,229.2,0.52,10.8,24.7,"13:34:00",1
"20/05/05","13:50",0.0,28.2,34.0,1003.8,259.7,1.7,4.5,333.8,0.52,10.9,24.6,"13:42:24",1
"20/05/05","14:00",0.0,28.5,31.2,1003.4,255.5,1.7,3.5,220.3,0.52,9.9,24.3,"13:50:16",1
"20/05/05","14:10",0.0,28.2,31.8,1003.1,261.1,2.2,4.3,248.0,0.50,9.9,24.5,"14:03:20",1
"20/05/05","14:20",0.0,28.5,31.4,1002.9,259.8,2.1,4.4,235.1,0.49,10.0,24.7,"14:18:40",1
"20/05/05","14:30",0.0,28.7,31.0,1002.9,272.1,1.6,3.3,267.2,0.43,10.0,24.6,"14:29:12",1
"20/05/05","14:40",0.0,28.5,31.6,1002.6,276.1,1.8,3.7,305.4,0.41,10.1,24.7,"14:36:56",1
"20/05/05","14:50",0.0,28.5,31.1,1002.6,258.5,1.7,4.7,240.6,0.38,9.8,24.7,"14:46:08",1
"20/05/05","15:00",0.0,28.3,31.6,1002.4,291.5,2.0,3.9,247.5,0.35,9.9,24.8,"14:54:48",1
"20/05/05","15:10",0.0,28.2,32.6,1002.4,267.1,1.8,4.0,249.0,0.27,10.3,24.5,"15:03:12",1
"20/05/05","15:20",0.0,28.0,32.2,1001.9,265.9,1.8,4.3,261.7,0.28,9.9,24.7,"15:12:48",1
"20/05/05","15:30",0.0,27.9,32.2,1001.7,271.4,1.8,5.2,230.2,0.26,9.8,24.6,"15:25:04",1
"20/05/05","15:40",0.0,28.0,31.3,1001.7,296.6,1.7,3.6,320.6,0.24,9.5,24.4,"15:36:56",1
"20/05/05","15:50",0.0,27.8,31.7,1001.7,260.6,1.7,3.4,226.1,0.21,9.5,24.4,"15:48:24",1
"20/05/05","16:00",0.0,27.5,31.4,1001.9,273.2,2.0,4.0,254.6,0.20,9.1,24.3,"15:54:00",1
"20/05/05","16:10",0.0,27.5,31.5,1001.5,262.2,2.1,5.5,246.9,0.20,9.2,24.3,"16:05:44",1
"20/05/05","16:20",0.0,27.1,31.4,1001.5,262.0,2.1,6.4,219.9,0.14,8.8,24.1,"16:11:44",1
"20/05/05","16:30",0.0,26.9,31.5,1001.5,278.7,1.8,4.1,306.3,0.14,8.6,24.0,"16:27:20",1
"20/05/05","16:40",0.0,26.9,31.2,1001.7,274.1,1.7,4.3,257.2,0.15,8.5,23.6,"16:37:04",1
"20/05/05","16:50",0.0,26.2,30.5,1002.2,285.2,2.1,3.9,340.3,0.09,7.6,23.6,"16:47:52",1
"20/05/05","17:00",0.0,26.4,31.0,1002.4,281.9,1.8,3.9,303.9,0.13,8.0,23.7,"16:51:28",1
"20/05/05","17:10",0.0,26.2,30.5,1002.4,288.7,1.8,3.4,334.3,0.10,7.6,23.4,"17:07:20",1
"20/05/05","17:20",0.0,25.9,30.5,1002.4,297.5,2.2,4.7,329.9,0.08,7.3,23.2,"17:15:36",1
"20/05/05","17:30",0.0,25.6,31.6,1002.4,303.7,1.6,3.9,346.3,0.04,7.6,23.2,"17:22:24",1
"20/05/05","17:40",0.0,25.0,32.9,1002.6,331.9,2.2,3.9,333.1,0.03,7.6,22.9,"17:38:08",1
"20/05/05","17:50",0.0,24.7,34.0,1002.9,319.2,1.6,3.2,333.5,0.02,7.8,22.9,"17:45:52",1
"20/05/05","18:00",0.0,24.3,35.2,1002.9,324.6,1.8,3.5,347.7,0.01,8.0,22.7,"17:56:48",1
"20/05/05","18:10",0.0,23.9,37.4,1003.1,338.7,1.7,2.9,347.3,0.01,8.5,22.7,"18:09:04",1
"20/05/05","18:20",0.0,23.5,38.2,1003.6,331.7,1.7,3.2,323.1,0.00,8.5,22.4,"18:12:16",1
"20/05/05","18:30",0.0,22.9,44.2,1003.6,342.7,1.2,1.9,348.7,0.00,10.1,22.1,"18:20:56",1
"20/05/05","18:40",0.0,22.3,47.1,1003.8,342.6,1.5,2.5,324.5,0.00,10.5,22.2,"18:31:36",1
"20/05/05","18:50",0.0,21.6,50.0,1003.8,339.6,1.5,2.0,338.2,0.00,10.8,21.9,"18:48:40",1
"20/05/05","19:00",0.0,21.0,50.9,1004.1,294.2,1.2,2.1,347.6,0.00,10.5,21.7,"18:51:04",1
"20/05/05","19:10",0.0,20.6,51.8,1004.3,286.0,1.0,1.6,266.0,0.00,10.4,21.7,"19:00:40",1
"20/05/05","19:20",0.0,20.1,53.1,1004.8,287.6,0.8,1.3,303.2,0.00,10.3,21.4,"19:16:40",1
"20/05/05","19:30",0.0,19.9,54.2,1004.8,334.3,1.1,2.2,328.4,0.00,10.4,21.2,"19:29:36",1
"20/05/05","19:40",0.0,19.9,53.8,1005.2,314.9,1.3,1.9,339.8,0.00,10.3,21.2,"19:31:20",1
"20/05/05","19:50",0.0,19.9,53.6,1005.5,310.6,1.2,3.1,346.2,0.00,10.3,20.9,"19:44:32",1
"20/05/05","20:00",0.0,19.7,54.7,1006.0,293.6,1.3,2.0,272.7,0.00,10.4,21.1,"19:53:36",1
"20/05/05","20:10",0.0,19.4,56.4,1006.2,346.4,0.7,1.9,337.9,0.00,10.6,20.9,"20:01:44",1
"20/05/05","20:20",0.0,18.8,58.1,1005.7,312.8,0.8,2.2,312.3,0.00,10.4,20.7,"20:16:32",1
"20/05/05","20:30",0.0,18.4,59.5,1006.0,289.5,1.0,1.4,309.4,0.00,10.4,20.4,"20:25:28",1
"20/05/05","20:40",0.0,18.4,60.2,1006.0,291.8,1.3,1.6,309.5,0.00,10.6,20.4,"20:39:12",1
"20/05/05","20:50",0.0,18.2,60.5,1005.7,278.1,1.5,2.1,264.9,0.00,10.5,20.4,"20:45:28",1
"20/05/05","21:00",0.0,18.1,60.4,1005.7,305.1,1.6,2.9,338.7,0.00,10.4,19.9,"20:58:16",1
"20/05/05","21:10",0.0,18.1,60.9,1005.5,312.7,1.8,2.9,336.1,0.00,10.5,19.9,"21:01:20",1
"20/05/05","21:20",0.0,18.4,60.6,1005.5,353.8,1.2,3.3,327.9,0.00,10.7,19.9,"21:11:04",1
"20/05/05","21:30",0.0,18.1,60.9,1005.7,300.2,0.8,1.8,324.1,0.00,10.5,19.6,"21:27:20",1
"20/05/05","21:40",0.0,17.9,61.9,1005.7,310.7,0.8,2.1,351.5,0.00,10.5,19.8,"21:37:52",1
"20/05/05","21:50",0.0,17.6,62.9,1005.5,304.1,1.2,1.7,318.7,0.00,10.5,19.5,"21:42:56",1
"20/05/05","22:00",0.0,17.4,63.1,1005.5,321.1,1.8,3.5,314.8,0.00,10.4,19.7,"21:55:52",1
"20/05/05","22:10",0.0,17.2,63.3,1005.2,303.2,1.5,2.7,338.6,0.00,10.2,19.3,"22:06:56",1
"20/05/05","22:20",0.0,16.9,64.2,1005.0,280.6,0.8,1.7,268.3,0.00,10.1,19.3,"22:18:08",1
"20/05/05","22:30",0.0,16.6,65.0,1005.0,292.1,1.3,1.9,308.0,0.00,10.0,19.4,"22:29:36",1
"20/05/05","22:40",0.0,16.5,65.8,1005.2,322.7,1.3,2.0,323.5,0.00,10.1,19.2,"22:36:24",1
"20/05/05","22:50",0.0,16.5,66.5,1005.0,303.7,1.2,1.8,322.1,0.00,10.3,18.9,"22:44:00",1
"20/05/05","23:00",0.0,16.3,66.6,1005.0,297.6,1.3,1.8,322.9,0.00,10.1,18.8,"22:53:20",1
"20/05/05","23:10",0.0,16.3,66.1,1005.0,286.2,1.0,1.6,294.5,0.00,10.0,18.8,"23:06:56",1
"20/05/05","23:20",0.0,16.3,65.0,1005.5,325.0,1.3,2.0,322.2,0.00,9.8,18.8,"23:17:44",1
"20/05/05","23:30",0.0,16.3,65.5,1005.2,335.5,1.1,2.2,320.5,0.00,9.9,18.8,"23:28:24",1
"20/05/05","23:40",0.0,16.5,65.3,1005.7,327.3,2.1,4.0,336.7,0.00,10.0,18.7,"23:35:12",1
"20/05/05","23:50",0.0,16.4,64.5,1005.7,310.0,1.7,2.7,315.9,0.00,9.7,18.6,"23:47:36",1
"20/05/05","24:00",0.0,16.5,63.0,1005.5,321.3,2.0,3.5,324.1,0.00,9.5,18.7,"23:50:40",1
